K5BOU Weather Reports


time (UTC)temp
C
wind
direction
speed
KPH
gust
KPH
rain 1hr
cm
rain 24hr
cm
rain mn
cm
humidity
%
barometer
mb
20260510043600 23 161 0.0 3.2 0.00 0.74 0.74 94 1009.6
20260510043057 23 157 1.6 3.2 0.00 0.74 0.74 94 1009.4
20260510042556 23 139 3.2 8.0 0.00 0.74 0.74 94 1009.7
20260510042051 23 137 3.2 4.8 0.00 0.74 0.74 93 1009.6
20260510041548 23 146 3.2 4.8 0.00 0.74 0.74 93 1009.6
20260510041046 23 163 1.6 3.2 0.00 0.74 0.74 92 1009.6
20260510040542 23 153 1.6 3.2 0.00 0.74 0.74 92 1009.4
20260510040038 23 175 0.0 1.6 0.00 0.74 0.74 91 1009.5
20260510035535 23 141 3.2 4.8 0.00 0.74 0.74 91 1009.5
20260510035034 23 182 1.6 3.2 0.00 0.74 0.74 91 1009.6
20260510034533 23 158 1.6 4.8 0.00 0.74 0.74 92 1009.9
20260510034029 23 200 0.0 1.6 0.00 0.74 0.74 93 1009.8
20260510033525 22 185 0.0 1.6 0.00 0.74 0.74 94 1009.9
20260510033023 22 163 0.0 3.2 0.00 0.74 0.74 96 1009.7
20260510032519 22 189 0.0 3.2 0.00 0.74 0.74 99 1009.7
20260510032015 21 137 0.0 1.6 0.00 0.74 0.74 99 1009.7
20260510031510 21 93 0.0 0.0 0.00 0.74 0.74 99 1009.5
20260510031006 21 185 0.0 0.0 0.00 0.74 0.74 99 1009.4
20260510030502 21 144 0.0 1.6 0.00 0.74 0.74 99 1009.2
20260510025959 21 181 0.0 0.0 0.00 0.74 0.74 99 1009.0
20260510025456 21 183 0.0 0.0 0.00 0.74 0.74 99 1008.6
20260510024954 21 184 0.0 0.0 0.00 0.74 0.74 99 1008.8
20260510024450 21 181 0.0 0.0 0.00 0.74 0.74 99 1008.6
20260510023946 21 178 0.0 0.0 0.00 0.74 0.74 99 1008.5
20260510023443 22 189 0.0 0.0 0.00 0.74 0.74 99 1008.4
20260510022939 22 191 0.0 0.0 0.00 0.74 0.74 99 1008.2
20260510022438 21 180 0.0 1.6 0.00 0.74 0.74 99 1008.2
20260510021938 21 180 0.0 1.6 0.00 0.74 0.74 99 1008.1
20260510021436 22 192 3.2 4.8 0.00 0.74 0.74 99 1007.7
20260510020932 21 183 3.2 8.0 0.00 0.74 0.74 99 1007.8
20260510020427 22 173 3.2 8.0 0.00 0.74 0.74 99 1007.8
20260510015923 22 221 6.4 8.0 0.00 0.74 0.74 99 1007.7
20260510015419 22 178 0.0 1.6 0.00 0.74 0.74 99 1007.3
20260510014914 21 202 1.6 3.2 0.00 0.74 0.74 99 1007.0
20260510014412 21 199 0.0 1.6 0.00 0.74 0.74 99 1006.8
20260510013908 21 196 0.0 1.6 0.00 0.74 0.74 99 1006.7
20260510013403 21 213 0.0 1.6 0.00 0.74 0.74 99 1006.9
20260510012858 21 239 6.4 9.7 0.00 0.74 0.74 99 1006.7
20260510012354 21 182 0.0 0.0 0.00 0.74 0.74 99 1006.6
20260510011848 21 189 0.0 0.0 0.00 0.74 0.74 99 1006.4
20260510011344 21 189 0.0 0.0 0.00 0.74 0.74 99 1006.5
20260510010840 21 189 0.0 0.0 0.00 0.74 0.74 99 1006.5
20260510010338 21 212 3.2 3.2 0.00 0.74 0.74 99 1006.5
20260510005834 21 211 3.2 4.8 0.00 0.74 0.74 99 1006.6
20260510005331 20 217 4.8 9.7 0.00 0.74 0.74 99 1006.5
20260510004828 20 213 1.6 3.2 0.18 0.74 0.74 99 1006.3
20260510004326 20 199 0.0 3.2 0.48 0.74 0.74 99 1006.3
20260510003823 21 234 4.8 4.8 0.89 0.71 0.71 99 1006.5
20260510003320 21 196 0.0 0.0 1.07 0.64 0.64 97 1006.4
20260510002819 21 181 0.0 0.0 1.02 0.53 0.53 96 1007.0
20260510002316 21 253 1.6 9.7 1.27 0.46 0.46 95 1007.2
20260510001813 21 277 1.6 4.8 0.97 0.36 0.36 94 1007.2
20260510001311 21 275 6.4 11.3 0.43 0.25 0.25 92 1007.3
20260510000806 22 344 8.0 12.9 0.30 0.20 0.20 90 1007.0
20260510000305 22 352 3.2 9.7 0.00 0.15 0.15 86 1006.5
20260509235801 22 41 1.6 11.3 0.00 0.15 0.15 85 1006.3
20260509235258 22 50 3.2 16.1 0.00 0.15 0.15 87 1006.4
20260509234753 22 66 3.2 14.5 0.00 0.15 0.15 93 1005.9
20260509234250 26 169 0.0 0.0 0.00 0.15 0.15 96 1005.9
20260509233749 26 169 0.0 0.0 0.00 0.15 0.15 96 1005.8
20260509233246 26 169 0.0 0.0 0.43 0.15 0.15 96 1005.9
20260509232742 26 169 0.0 0.0 0.43 0.15 0.15 96 1006.0
20260509232239 28 186 3.2 3.2 0.18 0.08 0.08 91 1006.4
20260509231735 28 186 3.2 3.2 0.48 0.08 0.08 91 1006.1
20260509231233 27 191 0.0 1.6 0.18 0.03 0.03 88 1006.1
20260509230730 29 207 3.2 4.8 0.00 0.00 0.00 83 1006.2
20260509230227 30 189 0.0 0.0 0.00 0.00 0.00 75 1005.9
20260509225722 30 190 1.6 3.2 0.00 0.00 0.00 74 1005.8
20260509225218 30 190 1.6 3.2 0.00 0.00 0.00 74 1005.8
20260509224714 30 190 1.6 3.2 0.00 0.00 0.00 74 1005.6
20260509224211 32 184 3.2 3.2 0.00 0.00 0.00 67 1005.5
20260509223708 32 184 3.2 3.2 0.00 0.00 0.00 67 1005.5
20260509223205 32 184 3.2 3.2 0.00 0.00 0.00 67 1005.6
20260509222702 32 184 3.2 3.2 0.00 0.00 0.00 67 1005.5
20260509222157 32 184 3.2 3.2 0.00 0.00 0.00 67 1005.5
20260509221648 32 184 3.2 3.2 0.00 0.00 0.00 67 1005.4
20260509221144 32 184 3.2 3.2 0.00 0.00 0.00 67 1005.5
20260509220640 32 184 3.2 3.2 0.00 0.00 0.00 67 1005.4
20260509220136 32 178 0.0 1.6 0.00 0.00 0.00 68 1005.5
20260509215632 32 198 0.0 0.0 0.00 0.00 0.00 65 1005.5
20260509215129 32 198 0.0 0.0 0.00 0.00 0.00 65 1005.5
20260509214626 32 198 0.0 0.0 0.00 0.00 0.00 65 1005.5
20260509214123 32 198 0.0 0.0 0.00 0.00 0.00 65 1005.6
20260509213619 32 200 0.0 0.0 0.00 0.00 0.00 68 1005.5
20260509213116 32 200 0.0 0.0 0.00 0.00 0.00 68 1005.3
20260509212613 32 200 0.0 0.0 0.00 0.00 0.00 68 1005.5
20260509212110 32 200 0.0 0.0 0.00 0.00 0.00 68 1005.6
20260509211606 32 200 0.0 0.0 0.00 0.00 0.00 68 1005.6
20260509211103 32 200 0.0 0.0 0.00 0.00 0.00 68 1005.6
20260509210559 32 200 0.0 0.0 0.00 0.00 0.00 68 1005.5
20260509210056 33 187 4.8 4.8 0.00 0.00 0.00 65 1005.8
20260509205556 32 174 0.0 3.2 0.00 0.00 0.00 65 1006.0
20260509205051 32 225 3.2 3.2 0.00 0.00 0.00 68 1006.0
20260509204548 32 225 3.2 3.2 0.00 0.00 0.00 68 1005.8
20260509204044 32 198 1.6 1.6 0.00 0.00 0.00 70 1006.0
20260509203540 32 212 3.2 3.2 0.00 0.00 0.00 67 1006.2
20260509203039 32 204 0.0 0.0 0.00 0.00 0.00 71 1006.1
20260509202533 32 216 1.6 1.6 0.00 0.00 0.00 70 1006.0
20260509202028 31 210 1.6 3.2 0.00 0.00 0.00 71 1006.4
20260509201518 31 210 1.6 3.2 0.00 0.00 0.00 71 1006.5
20260509201016 31 210 1.6 3.2 0.00 0.00 0.00 71 1006.5
20260509200516 31 210 1.6 3.2 0.00 0.00 0.00 71 1006.6
20260509200013 31 210 1.6 3.2 0.00 0.00 0.00 71 1006.5
20260509195508 31 203 1.6 3.2 0.00 0.00 0.00 70 1006.5
20260509195008 30 228 4.8 4.8 0.00 0.00 0.00 73 1006.5
20260509194504 30 178 1.6 1.6 0.00 0.00 0.00 74 1006.7
20260509194001 30 202 1.6 3.2 0.00 0.00 0.00 75 1006.6
20260509193501 31 175 1.6 3.2 0.00 0.00 0.00 73 1006.7
20260509192957 31 161 4.8 4.8 0.00 0.00 0.00 73 1006.7
20260509192454 31 212 1.6 1.6 0.00 0.00 0.00 71 1006.8
20260509191949 31 225 4.8 4.8 0.00 0.00 0.00 71 1006.7
20260509191444 31 184 1.6 3.2 0.00 0.00 0.00 71 1006.8
20260509190940 31 184 1.6 3.2 0.00 0.00 0.00 71 1006.5
20260509190437 31 162 1.6 3.2 0.00 0.00 0.00 72 1006.7
20260509185935 30 199 0.0 0.0 0.00 0.00 0.00 74 1006.8
20260509185432 30 317 4.8 4.8 0.00 0.00 0.00 74 1006.8
20260509184929 30 211 0.0 4.8 0.00 0.00 0.00 77 1007.0
20260509184427 30 197 0.0 8.0 0.00 0.00 0.00 77 1007.0
20260509183923 29 299 4.8 4.8 0.00 0.00 0.00 76 1007.0
20260509183417 30 218 3.2 4.8 0.00 0.00 0.00 75 1007.0
20260509182914 29 201 3.2 3.2 0.00 0.00 0.00 76 1007.2
20260509182411 29 217 1.6 1.6 0.00 0.00 0.00 77 1007.2
20260509181908 29 217 1.6 1.6 0.00 0.00 0.00 77 1007.5
20260509181406 29 217 1.6 1.6 0.00 0.00 0.00 77 1007.6
20260509180903 29 217 1.6 1.6 0.00 0.00 0.00 77 1007.5
20260509180358 30 191 0.0 0.0 0.00 0.00 0.00 74 1007.8
20260509175855 30 191 0.0 0.0 0.00 0.00 0.00 74 1007.7
20260509175351 30 191 0.0 0.0 0.00 0.00 0.00 74 1007.7
20260509174848 30 145 0.0 1.6 0.00 0.00 0.00 77 1007.7
20260509174344 29 213 6.4 11.3 0.00 0.00 0.00 79 1007.7
20260509173840 28 205 4.8 8.0 0.00 0.00 0.00 81 1007.9
20260509173335 28 160 3.2 8.0 0.00 0.00 0.00 82 1008.0
20260509172831 28 210 3.2 8.0 0.00 0.00 0.00 82 1008.4
20260509172328 28 203 4.8 4.8 0.00 0.00 0.00 82 1008.6
20260509171824 28 190 0.0 3.2 0.00 0.00 0.00 84 1008.4
20260509171320 27 183 1.6 3.2 0.00 0.00 0.00 85 1008.6
20260509170817 28 171 3.2 4.8 0.00 0.00 0.00 88 1008.5
20260509170312 27 201 0.0 1.6 0.00 0.00 0.00 88 1008.6
20260509165812 28 210 3.2 4.8 0.00 0.00 0.00 86 1008.7
20260509165307 28 170 0.0 3.2 0.00 0.00 0.00 87 1008.7
20260509164803 27 192 0.0 0.0 0.00 0.00 0.00 90 1008.5
20260509164300 27 161 0.0 3.2 0.00 0.00 0.00 90 1008.7
20260509163756 27 207 4.8 8.0 0.00 0.00 0.00 90 1008.8
20260509163253 27 200 1.6 3.2 0.00 0.00 0.00 93 1008.4
20260509162752 26 187 0.0 0.0 0.00 0.00 0.00 94 1008.6
20260509162245 26 182 0.0 1.6 0.00 0.00 0.00 94 1008.4
20260509161742 26 189 0.0 0.0 0.00 0.00 0.00 94 1008.5
20260509161238 26 171 0.0 1.6 0.00 0.00 0.00 94 1008.4
20260509160733 26 197 0.0 1.6 0.00 0.00 0.00 95 1008.4
20260509160230 26 203 0.0 0.0 0.00 0.00 0.00 95 1008.4
20260509155724 26 188 0.0 3.2 0.00 0.00 0.00 96 1008.5
20260509155221 26 224 0.0 1.6 0.00 0.00 0.00 96 1008.3
20260509154717 26 186 0.0 0.0 0.00 0.00 0.00 96 1008.2
20260509154215 25 181 0.0 0.0 0.00 0.00 0.00 98 1008.3
20260509153712 25 201 3.2 3.2 0.00 0.00 0.00 98 1008.3
20260509153208 25 114 0.0 1.6 0.00 0.00 0.00 99 1008.1
20260509152704 25 202 0.0 3.2 0.00 0.00 0.00 99 1008.3
20260509152201 25 175 1.6 1.6 0.00 0.00 0.00 99 1008.2
20260509151658 25 202 0.0 1.6 0.00 0.00 0.00 99 1008.5
20260509151155 25 191 0.0 1.6 0.00 0.00 0.00 99 1008.2
20260509150653 25 169 1.6 1.6 0.00 0.00 0.00 99 1008.2
20260509150151 25 193 0.0 1.6 0.00 0.00 0.00 99 1008.2
20260509145647 24 175 0.0 1.6 0.00 0.00 0.00 99 1008.1
20260509145142 24 181 0.0 0.0 0.00 0.00 0.00 99 1008.2
20260509144639 24 175 0.0 1.6 0.00 0.00 0.00 99 1008.1
20260509144136 24 180 0.0 0.0 0.00 0.00 0.00 99 1008.1
20260509143633 24 185 0.0 0.0 0.00 0.00 0.00 99 1007.9
20260509143131 24 185 0.0 0.0 0.00 0.00 0.00 99 1008.0
20260509142626 24 176 0.0 0.0 0.00 0.00 0.00 99 1007.7
20260509142123 23 176 0.0 0.0 0.00 0.00 0.00 99 1007.7
20260509141619 23 177 0.0 3.2 0.00 0.00 0.00 99 1007.3
20260509141115 23 159 1.6 1.6 0.00 0.00 0.00 99 1007.2
20260509140612 23 185 0.0 0.0 0.00 0.00 0.00 99 1007.3
20260509140110 23 192 0.0 0.0 0.00 0.00 0.00 99 1007.2
20260509135607 23 185 0.0 0.0 0.00 0.00 0.00 99 1007.3
20260509135105 23 185 0.0 0.0 0.00 0.00 0.00 99 1007.8
20260509134601 23 185 0.0 0.0 0.00 0.00 0.00 99 1007.8
20260509134059 23 191 0.0 1.6 0.00 0.00 0.00 99 1007.9
20260509133556 23 179 0.0 0.0 0.00 0.00 0.00 99 1008.1
20260509133053 23 198 1.6 4.8 0.00 0.00 0.00 99 1008.2
20260509132552 23 178 1.6 3.2 0.00 0.00 0.00 99 1008.2
20260509132050 23 195 0.0 0.0 0.00 0.00 0.00 99 1008.5
20260509131545 23 222 1.6 3.2 0.00 0.00 0.00 99 1008.6
20260509131042 23 184 0.0 0.0 0.00 0.00 0.00 99 1008.7
20260509130537 23 186 1.6 1.6 0.00 0.00 0.00 99 1008.7
20260509130035 23 195 1.6 1.6 0.00 0.00 0.00 99 1009.0
20260509125531 23 211 1.6 3.2 0.00 0.00 0.00 99 1008.8
20260509125028 23 205 0.0 0.0 0.00 0.00 0.00 99 1008.5
20260509124524 23 186 0.0 3.2 0.00 0.00 0.00 99 1008.1
20260509124022 23 182 1.6 3.2 0.00 0.00 0.00 99 1008.2
20260509123520 23 200 0.0 0.0 0.00 0.00 0.00 99 1008.4
20260509123016 23 221 1.6 3.2 0.00 0.00 0.00 99 1008.5
20260509122512 23 219 0.0 1.6 0.00 0.00 0.00 99 1008.6
20260509122009 23 195 0.0 0.0 0.00 0.00 0.00 99 1008.4
20260509121506 23 184 0.0 0.0 0.00 0.00 0.00 99 1008.5
20260509121004 23 169 0.0 1.6 0.00 0.00 0.00 99 1008.5
20260509120502 23 193 0.0 0.0 0.00 0.00 0.00 99 1008.3
20260509120000 23 189 0.0 1.6 0.00 0.00 0.00 99 1008.6
20260509115456 23 202 0.0 0.0 0.00 0.00 0.00 99 1008.9
20260509114954 23 192 0.0 0.0 0.00 0.00 0.00 99 1008.5
20260509114452 23 211 0.0 1.6 0.00 0.00 0.00 99 1008.0
20260509113951 22 192 0.0 0.0 0.00 0.00 0.00 99 1008.3
20260509113448 22 183 0.0 0.0 0.00 0.00 0.00 99 1008.0
20260509112945 22 175 0.0 0.0 0.00 0.00 0.00 99 1008.1
20260509112443 22 174 0.0 0.0 0.00 0.00 0.00 99 1008.0
20260509111939 22 176 0.0 0.0 0.00 0.00 0.00 99 1008.0
20260509111437 22 182 0.0 0.0 0.00 0.00 0.00 99 1007.8
20260509110934 22 190 0.0 0.0 0.00 0.00 0.00 99 1007.7
20260509110429 22 188 0.0 0.0 0.00 0.00 0.00 99 1008.0
20260509105928 22 181 0.0 0.0 0.00 0.00 0.00 99 1007.8
20260509105426 22 189 0.0 0.0 0.00 0.00 0.00 99 1008.1
20260509104923 22 182 0.0 0.0 0.00 0.00 0.00 99 1008.0
20260509104420 22 185 0.0 0.0 0.00 0.00 0.00 99 1007.8
20260509103917 22 182 0.0 0.0 0.00 0.00 0.00 99 1007.8
20260509103414 22 174 0.0 0.0 0.00 0.00 0.00 99 1007.7
20260509102913 22 187 0.0 0.0 0.00 0.00 0.00 99 1007.7
20260509102410 23 187 0.0 0.0 0.00 0.00 0.00 99 1007.8
20260509101905 23 187 0.0 0.0 0.00 0.00 0.00 99 1007.7
20260509101401 23 187 0.0 0.0 0.00 0.00 0.00 99 1007.8
20260509100900 23 188 0.0 0.0 0.00 0.00 0.00 99 1007.7
20260509100356 23 188 0.0 0.0 0.00 0.00 0.00 99 1007.8
20260509095853 23 194 0.0 0.0 0.00 0.00 0.00 99 1007.7
20260509095350 23 186 0.0 0.0 0.00 0.00 0.00 99 1007.6
20260509094847 23 176 0.0 0.0 0.00 0.00 0.00 99 1007.4
20260509094344 23 177 0.0 0.0 0.00 0.00 0.00 99 1007.1
20260509093842 23 178 0.0 0.0 0.00 0.00 0.00 99 1007.3
20260509093338 23 181 0.0 0.0 0.00 0.00 0.00 99 1007.1
20260509092837 23 181 0.0 0.0 0.00 0.00 0.00 99 1007.2
20260509092335 23 186 0.0 0.0 0.00 0.00 0.00 99 1007.2
20260509091832 23 186 0.0 0.0 0.00 0.00 0.00 99 1007.3
20260509091329 23 182 0.0 0.0 0.00 0.00 0.00 99 1007.3
20260509090826 23 186 0.0 0.0 0.00 0.00 0.00 99 1007.6
20260509090323 23 191 0.0 0.0 0.00 0.00 0.00 99 1007.6
20260509085821 23 184 0.0 0.0 0.00 0.00 0.00 99 1007.6
20260509085318 23 184 0.0 0.0 0.00 0.00 0.00 99 1007.7
20260509084814 23 184 0.0 0.0 0.00 0.00 0.00 99 1007.6
20260509084311 23 176 0.0 0.0 0.00 0.00 0.00 99 1007.5
20260509083809 23 174 0.0 0.0 0.00 0.00 0.00 99 1007.5
20260509083306 23 175 0.0 0.0 0.00 0.00 0.00 99 1007.5
20260509082803 23 178 0.0 0.0 0.00 0.00 0.00 99 1007.2
20260509082259 23 166 0.0 0.0 0.00 0.00 0.00 99 1007.4
20260509081756 23 177 0.0 1.6 0.00 0.00 0.00 99 1007.6
20260509081253 23 167 0.0 0.0 0.00 0.00 0.00 99 1007.5
20260509080752 23 166 0.0 0.0 0.00 0.00 0.00 99 1007.6
20260509080249 23 160 0.0 0.0 0.00 0.00 0.00 99 1007.4
20260509075747 23 126 0.0 0.0 0.00 0.00 0.00 99 1007.4
20260509075244 23 158 0.0 1.6 0.00 0.00 0.00 99 1007.2
20260509074741 23 154 1.6 4.8 0.00 0.00 0.00 99 1007.1
20260509074239 23 168 1.6 1.6 0.00 0.00 0.00 99 1007.1
20260509073734 23 163 0.0 1.6 0.00 0.00 0.00 99 1007.2
20260509073231 23 176 0.0 1.6 0.00 0.00 0.00 99 1007.2
20260509072728 23 175 0.0 1.6 0.00 0.00 0.00 99 1007.4
20260509072225 23 181 0.0 3.2 0.00 0.00 0.00 99 1007.9
20260509071721 23 174 1.6 1.6 0.00 0.00 0.00 99 1007.8
20260509071219 23 183 0.0 1.6 0.00 0.00 0.00 99 1008.0
20260509070716 23 182 0.0 0.0 0.00 0.00 0.00 99 1008.0
20260509070212 23 181 0.0 0.0 0.00 0.00 0.00 99 1008.1
20260509065708 23 180 0.0 0.0 0.00 0.00 0.00 99 1008.2
20260509065204 23 185 0.0 0.0 0.00 0.00 0.00 99 1008.2
20260509064701 23 186 0.0 0.0 0.00 0.00 0.00 99 1008.3
20260509064159 23 186 0.0 0.0 0.00 0.00 0.00 99 1008.4
20260509063656 23 175 0.0 0.0 0.00 0.00 0.00 99 1008.1
20260509063152 23 176 0.0 0.0 0.00 0.00 0.00 99 1008.1
20260509062649 23 176 0.0 0.0 0.00 0.00 0.00 99 1008.0
20260509062146 23 177 0.0 0.0 0.00 0.00 0.00 99 1007.7
20260509061643 23 176 0.0 1.6 0.00 0.00 0.00 99 1007.9
20260509061141 23 171 0.0 0.0 0.00 0.00 0.00 99 1008.3
20260509060638 23 172 0.0 0.0 0.00 0.00 0.00 99 1008.0
20260509060134 23 170 0.0 3.2 0.00 0.00 0.00 99 1008.2
20260509055630 23 170 0.0 1.6 0.00 0.00 0.00 99 1008.2
20260509055126 23 180 0.0 1.6 0.00 0.00 0.00 99 1008.4
20260509054623 23 149 0.0 0.0 0.00 0.00 0.00 99 1008.3
20260509054120 23 167 0.0 0.0 0.00 0.00 0.00 99 1008.3
20260509053619 23 171 0.0 0.0 0.00 0.00 0.00 99 1008.3
20260509053115 23 175 0.0 1.6 0.00 0.00 0.00 99 1008.1
20260509052613 23 177 0.0 1.6 0.00 0.00 0.00 99 1008.5
20260509052111 23 173 0.0 1.6 0.00 0.00 0.00 99 1008.4
20260509051608 23 171 0.0 0.0 0.00 0.00 0.00 99 1008.4
20260509051105 23 180 0.0 1.6 0.00 0.00 0.00 99 1008.4
20260509050602 23 171 0.0 1.6 0.00 0.00 0.00 99 1008.4
20260509050058 23 162 0.0 0.0 0.00 0.00 0.00 99 1008.1
20260509045556 23 167 0.0 0.0 0.00 0.23 0.23 99 1008.4
20260509045053 23 182 0.0 1.6 0.00 0.23 0.23 99 1008.4
20260509044550 23 180 0.0 0.0 0.00 0.23 0.23 99 1008.5
20260509044048 23 164 0.0 1.6 0.00 0.23 0.23 99 1008.3